Torna al catalogo

STARLINK-35442

AttivoComunicazioniVLEO
NORAD 66319·PAYLOAD·🇺🇸 United States

Lanciato Nov 6, 2025 da Cape Canaveral Space Force Station

Loading…

Prossimi Passaggi (prossime 24 ore)

TLE

AggiornatoSource: CelesTrak SupGP

Epoca: Sep 14, 2026, 23:23 UTC

1 66319C 25253A   26257.97479167 -.00004795  00000+0 -17363-3 0  2570
2 66319  42.9995 223.8567 0001204 262.4643 304.8008 15.27587529    17

Traccia STARLINK-35442 in tempo reale con AllMySat

Download on the App Store